{"data":{"norad_id":51472,"epoch":"2026-05-25T02:42:01.703808Z","epoch_age_seconds":65202,"freshness":"FRESH","line1":"1 51472U 22010S   26145.11251972  .00001660  00000+0  12232-3 0  9995","line2":"2 51472  53.2135 295.9736 0001519  90.0580 270.0586 15.08847626238366","mean_motion":15.08847626,"eccentricity":0.0001519,"inclination_deg":53.2135,"raan_deg":295.9736,"arg_perigee_deg":90.058,"mean_anomaly_deg":270.0586,"bstar":0.00012232,"rev_number":23836,"period_min":95.437072318395,"perigee_km":538.66925694074,"apogee_km":540.77090192147,"semimajor_km":6917.8570794311,"source":"CELESTRAK","updated_at":"2026-05-25T13:38:16.919393Z"}}